Regional Weather Roundup
Issued by NWS

Home | Current Version | Previous Version | Text Only | Print | Product List | Glossary On
Versions: 1 2 3 4 5 6 7 8 9 10 11 12 13 14 15 16 17 18 19 20 21 22 23 24 25 26 27 28 29 30 31 32 33 34 35 36 37 38 39 40 41 42 43 44 45 46 47 48 49 50
000
ASUS44 KEWX 061411
RWRTX
SOUTH TEXAS REGIONAL WEATHER ROUNDUP
NATIONAL WEATHER SERVICE AUSTIN/SAN ANTONIO TX
800 AM CST SAT FEB 06 2016

NOTE: "FAIR" INDICATED FEW OR NO CLOUDS BELOW 12,000 FEET WITH NO
SIGNIFICANT WEATHER AND/OR OBSTRUCTIONS TO VISIBILITY.

* - THESE STATIONS ARE NOT NWS OR FAA STATIONS...AND ARE NOT SUBJECT
    TO NWS AND FAA QUALITY CONTROL.

TXZ171-172-183>190-061500-
TEXAS HILL COUNTRY AND EDWARDS PLATEAU

CITY           SKY/WX    TMP DP  RH WIND       PRES   REMARKS
JUNCTION       CLEAR     31  20  63 W6        30.42R WCI  25
*LLANO         CLEAR     41  27  56 NW12      30.40R WCI  34
BURNET         CLEAR     41  25  53 W10G17    30.35R WCI  35
*HORSESHOE BAY CLEAR     42  26  54 W8        30.36R WCI  36
*KERRVILLE     CLEAR     32  25  76 NW7       30.39R WCI  26
*FREDERICKSBRG CLEAR     39  23  51 NW8       30.37R WCI  34
*ROCKSPRINGS   CLEAR     36  23  60 NW12      30.43R WCI  27
*BOERNE STAGE  CLEAR     41  23  48 NW12G17   30.38R WCI  34
*CASTROVILLE   CLEAR     37  27  67 NW10      30.42R WCI  30
HONDO          CLEAR     33  25  72 NW10      30.42R WCI  25
*UVALDE        CLEAR     36  26  66 N6        30.44R WCI  31
DEL RIO        CLEAR     39  22  50 NW7       30.46R WCI  34
LAUGHLIN AFB   CLEAR     36  23  59 NW8       30.45R WCI  30
CARRIZO SPRGS  CLEAR     37  28  70 NW9       30.44R WCI  31
*EAGLE PASS    SUNNY     37  21  52 NW8       30.46R WCI  31
$$

TXZ173-191>194-202-209-217>225-228-061500-
CENTRAL AND SOUTH CENTRAL TEXAS

CITY           SKY/WX    TMP DP  RH WIND       PRES   REMARKS
GEORGETOWN     CLEAR     43  25  49 W9G18     30.31R WCI  37
AUSTIN/BERGSTM CLEAR     47  25  42 NW16G23   30.32R WCI  40
AUSTIN/MABRY   CLEAR     46  26  45 NW13G21   30.34R WCI  40
*AUSTIN/EXEC   CLEAR     43  28  56 NW15      30.33R WCI  35
*LAGO VISTA    CLEAR     42  27  55 W16G23    30.32R WCI  34
SAN MARCOS     CLEAR     39  27  60 W7        30.36R WCI  34
NEW BRAUNFELS  CLEAR     41  29  62 W9        30.34R WCI  35
RANDOLPH AFB   CLEAR     44  26  49 NW14      30.37R WCI  37
PT SAN ANTONIO CLEAR     43  26  50 NW12      30.37R WCI  37
SAN ANTONIO    PTCLDY    42  27  55 NW8       30.38R WCI  37
STINSON FIELD  CLEAR     45  27  49 NW9       30.37R WCI  40
*PLEASANTON    CLEAR     38  35  85 W8        30.40R WCI  33
*LA GRANGE     CLEAR     44  36  75 W6        30.30R WCI  40
*GIDDINGS      CLEAR     42  34  75 W6        30.35R WCI  38
*GONZALES      CLEAR     44  37  76 NW8       30.34R WCI  39
$$

TXZ163>164-176>182-195>201-210>213-226-227-235-061500-
SOUTHEAST TEXAS

CITY           SKY/WX    TMP DP  RH WIND       PRES   REMARKS
COLLEGE STN    CLEAR     42  37  82 W6        30.30R WCI  38
*BRYAN         CLEAR     41  37  84 W7        30.31R WCI  36
*CALDWELL      CLEAR     39  32  75 W7        30.34R WCI  34
*CROCKETT      PTCLDY    41  39  93 CALM      30.31R
*BRENHAM       CLEAR     43  41  92 W5        30.31R WCI  40
HUNTSVILLE     CLEAR     43  40  89 SW3       30.28R
CONROE         PTCLDY    37  36  96 CALM      30.30R
HOUSTON BUSH   PTCLDY    44  43  96 S5        30.29F WCI  42
HOUSTON HOBBY  PTCLDY    44  42  93 SE3       30.30F
*HOUSTON SW AP PTCLDY    41  41  99 CALM      30.33R
PEARLAND       PTCLDY    45  43  93 CALM      30.33S
HOUSTON HOOKS  PTCLDY    43  42  97 CALM      30.30R FOG
ELLINGTON FLD  PTCLDY    46  45  93 CALM      30.32F
SUGAR LAND     PTCLDY    44  44 100 S6        30.30F WCI  41
*HOUSTON EXEC  PTCLDY    43  43 100 CALM      30.32R
*CLEVELAND MUN FOG       40  40 100 CALM      30.31R VSB 1
*WHARTON       CLEAR     44  43  95 W3        30.33S
*COLUMBUS      FAIR      41  40  98 W5        30.31R WCI  38
*EAGLE LAKE    SUNNY     44  43  97 W6        30.31R WCI  40
$$

TXZ214>216-236>238-061500-
THE UPPER TEXAS COAST

CITY           SKY/WX    TMP DP  RH WIND       PRES   REMARKS
*ORANGE        LGT RAIN  42  38  86 N8        30.37R WCI  37
PORT ARTHUR    LGT RAIN  44  42  93 N9        30.35R WCI  39
GALVESTON      CLOUDY    50  47  89 N7        30.32F WCI  47
ANGLETON       CLOUDY    45  43  93 CALM      30.32R
*BAY CITY      PTCLDY    46  46  99 W6        30.33R WCI  43
PALACIOS       PTCLDY    49  46  90 NW10      30.35R WCI  45
$$

TXZ229>234-239>247-061500-
TEXAS COASTAL BEND AND RIO GRANDE PLAINS

CITY           SKY/WX    TMP DP  RH WIND       PRES   REMARKS
VICTORIA       CLEAR     44  43  96 W6        30.35S WCI  41
*BEEVILLE      CLEAR     46  44  91 NW6       30.37R WCI  43
ROCKPORT       CLEAR     50  45  83 NW13      30.37R WCI  45
*PORT ARANSAS  CLEAR     49  47  93 NW12      30.37R WCI  44
*PORT LAVACA   CLEAR     44  43  95 W5        30.35S WCI  42
*INGLESIDE     CLEAR     44  42  93 NW7       30.37R WCI  40
CORPUS CHRISTI PTCLDY    48  43  82 NW10      30.38R WCI  43
CORPUS NAS     CLEAR     52  49  89 NW16      30.37R
*ROBSTOWN      CLEAR     47  44  89 NW9       30.39R WCI  43
ALICE          CLEAR     47  44  90 NW10      30.38R WCI  42
KINGSVILLE NAS CLEAR     48  46  93 NW13      30.38R WCI  43
COTULLA        CLEAR     36  33  89 NW5       30.43R WCI  32
*FAITH RANCH   CLEAR     43  25  49 NW12      30.45R WCI  37
LAREDO         CLEAR     43  34  70 NW13      30.45R WCI  36
$$

TXZ248>255-061500-
DEEP SOUTH TEXAS

CITY           SKY/WX    TMP DP  RH WIND       PRES   REMARKS
BROWNSVILLE    CLEAR     52  49  89 NW7       30.38R
PORT ISABEL    CLEAR     51  48  89 NW9       30.37R
*SOUTH PADRE     N/A     57  54  88 MISG      30.37R
HARLINGEN      CLEAR     49  46  90 NW7       30.38R WCI  46
*HEBBRONVILLE  NOT AVBL
MCALLEN        CLEAR     48  42  80 W7        30.41R WCI  45
*WESLACO       CLEAR     49  46  89 W6        30.39R WCI  46
FALFURRIAS     CLEAR     47  42  83 W6        30.39R WCI  45
EDINBURG       CLEAR     48  45  89 NW5       30.40R WCI  46
*ZAPATA        CLEAR     44  37  79 W7        30.43R WCI  39
$$

TXZ213>215-236>238-242>244-246-247-251-254-255-061500-
CMAN STATIONS

STATION/POSITION TIME  TEMP    WIND        PRES    WAVE
                       AIR SEA DIR/SP/G            HT/PER
                 (UTC) (F)     (DEG/KT/KT) (MB)    (FT/S)
SABINE PASS      1300   53 57  130/  8/ 10 1026.8
SEA RIM ST PARK  1400   45     340/ 13/ 16 1027.8
NORTH JETTY/GLS  1300   52 56  350/ 24/ 29   N/A
EAGLE POINT      1300   49 50  350/  6/ 11 1026.9
MORGANS POINT    1300   47 53   30/  6/  8 1026.5
MISSION/ARANSAS  1300   50                 1028.0
PORT O`CONNOR    1300          340/ 13/ 20   N/A
PORT ARANSAS     1400   49 59  310/  8/ 10 1028.9
MALAQUITE BEACH  1300   52 59  260/  8/  9 1027.4
BAFFIN BAY       1300   52 58  280/  9/ 10 1027.8
PORT ISABEL      1300   55 59  330/  6/  8 1027.3
$$

GMZ080-GMZ150>470-061500-
OFFSHORE BUOY REPORTS

STATION/POSITION TIME  TEMP    WIND        PRES    WAVE
                       AIR SEA DIR/SP/G            HT/PER
                 (UTC) (F)     (DEG/KT/KT) (MB)    (FT/S)
20 E GALVESTON   1350   53 57  320/ 19/ 23 1026.3    2/ 4
90 E PT ARANSAS  1350   62 68  290/ 10/ 16 1026.2    3/ 6
35 NE PT MANSFLD 1350   63 68  300/ 17/ 21 1027.1    4/ 7
200 E PT ISABEL  1350                        N/A     4/ 8
$$



USA.gov is the U.S. government's official web portal to all federal, state and local government web resources and services.